AIQ3046 WIII-WARR

Flight info

Callsign AIQ3046
Flight time N/A
Altitude 31000
Route CA T3 BA
Aircraft B738/M-SDE2E3FGHIRWXY/LB1

Departure

Time 2026-05-01 11:44
Airport Soekarno-Hatta International Airport (WIII)

Arrival

Time N/A
Airport Juanda International Airport (WARR)
Time Latitude Longitude Altitude Speed Heading
2026-05-01 11:18 -6.11972 106.65243 38 ft 0 kts 207°
2026-05-01 11:35 -6.11950 106.65255 38 ft 8 kts 212°
2026-05-01 11:36 -6.11928 106.65270 38 ft 8 kts 221°
2026-05-01 11:36 -6.11911 106.65290 38 ft 8 kts 252°
2026-05-01 11:36 -6.11911 106.65306 37 ft 4 kts 309°
2026-05-01 11:38 -6.11905 106.65299 37 ft 6 kts 309°
2026-05-01 11:39 -6.11877 106.65266 38 ft 7 kts 316°
2026-05-01 11:39 -6.11834 106.65242 38 ft 7 kts 337°
2026-05-01 11:39 -6.11788 106.65206 38 ft 12 kts 294°
2026-05-01 11:39 -6.11802 106.65119 38 ft 14 kts 250°
2026-05-01 11:40 -6.11844 106.65018 38 ft 17 kts 246°
2026-05-01 11:40 -6.11891 106.64897 38 ft 20 kts 248°
2026-05-01 11:40 -6.11945 106.64761 38 ft 22 kts 248°
2026-05-01 11:40 -6.12005 106.64611 38 ft 24 kts 249°
2026-05-01 11:41 -6.12071 106.64446 38 ft 26 kts 248°
2026-05-01 11:41 -6.12142 106.64269 38 ft 28 kts 248°
2026-05-01 11:41 -6.12213 106.64090 38 ft 20 kts 248°
2026-05-01 11:41 -6.12256 106.63958 39 ft 14 kts 271°
2026-05-01 11:42 -6.12230 106.63907 40 ft 1 kts 318°
2026-05-01 11:42 -6.12221 106.63899 40 ft 3 kts 322°
2026-05-01 11:42 -6.12164 106.63896 40 ft 17 kts 18°
2026-05-01 11:42 -6.12079 106.63947 40 ft 13 kts 49°
2026-05-01 11:43 -6.12033 106.64054 40 ft 31 kts 69°
2026-05-01 11:43 -6.11872 106.64457 40 ft 93 kts 69°
2026-05-01 11:43 -6.11559 106.65242 40 ft 147 kts 68°
2026-05-01 11:44 -6.10755 106.67252 1111 ft 164 kts 67°
2026-05-01 11:44 -6.10095 106.68243 1646 ft 178 kts 50°
2026-05-01 11:44 -6.09194 106.69163 2158 ft 192 kts 43°
2026-05-01 11:44 -6.08195 106.70139 2636 ft 209 kts 44°
2026-05-01 11:45 -6.07132 106.71223 3177 ft 227 kts 46°
2026-05-01 11:45 -6.06006 106.72415 3855 ft 244 kts 47°
2026-05-01 11:45 -6.04809 106.73706 4503 ft 261 kts 48°
2026-05-01 11:45 -6.03537 106.75079 5198 ft 274 kts 48°
2026-05-01 11:46 -6.02222 106.76492 6052 ft 280 kts 48°
2026-05-01 11:46 -6.00890 106.77919 6914 ft 284 kts 48°
2026-05-01 11:46 -5.99513 106.79394 7770 ft 289 kts 49°
2026-05-01 11:46 -5.98438 106.81097 8582 ft 291 kts 70°
2026-05-01 11:47 -5.98086 106.83091 9379 ft 293 kts 94°
2026-05-01 11:47 -5.98512 106.85092 10180 ft 295 kts 108°
2026-05-01 11:47 -5.99186 106.87102 10600 ft 312 kts 110°
2026-05-01 11:47 -5.99949 106.89206 11036 ft 328 kts 111°
2026-05-01 11:48 -6.00731 106.91380 11709 ft 334 kts 110°
2026-05-01 11:48 -6.01491 106.93569 12438 ft 338 kts 109°
2026-05-01 11:48 -6.02271 106.95871 12836 ft 350 kts 109°
2026-05-01 11:48 -6.03041 106.98155 12860 ft 348 kts 109°
2026-05-01 11:49 -6.03819 107.00442 12920 ft 347 kts 109°
2026-05-01 11:49 -6.04603 107.02726 13755 ft 346 kts 109°
2026-05-01 11:49 -6.05394 107.05024 14523 ft 349 kts 109°
2026-05-01 11:49 -6.06189 107.07341 15255 ft 353 kts 109°
2026-05-01 11:50 -6.06992 107.09688 15971 ft 357 kts 108°
2026-05-01 11:50 -6.07802 107.12058 16660 ft 360 kts 108°
2026-05-01 11:50 -6.08621 107.14455 17325 ft 364 kts 108°
2026-05-01 11:50 -6.09449 107.16873 17981 ft 368 kts 108°
2026-05-01 11:51 -6.10322 107.19303 18615 ft 372 kts 110°
2026-05-01 11:51 -6.11339 107.21704 19227 ft 376 kts 113°
2026-05-01 11:51 -6.12452 107.24091 19819 ft 379 kts 114°
2026-05-01 11:51 -6.13576 107.26504 20398 ft 383 kts 113°
2026-05-01 11:52 -6.14666 107.28956 20951 ft 386 kts 112°
2026-05-01 11:52 -6.15731 107.31444 21478 ft 389 kts 112°
2026-05-01 11:52 -6.16800 107.33956 21993 ft 393 kts 112°
2026-05-01 11:52 -6.17892 107.36485 22494 ft 396 kts 112°
2026-05-01 11:53 -6.19005 107.39025 22971 ft 399 kts 112°
2026-05-01 11:53 -6.20118 107.41555 23424 ft 402 kts 112°
2026-05-01 11:53 -6.21246 107.44133 23865 ft 405 kts 112°
2026-05-01 11:53 -6.22381 107.46739 24292 ft 408 kts 112°
2026-05-01 11:54 -6.23518 107.49359 24706 ft 411 kts 112°
2026-05-01 11:54 -6.24667 107.51999 25104 ft 413 kts 112°
2026-05-01 11:54 -6.25822 107.54652 25501 ft 416 kts 112°
2026-05-01 11:54 -6.26980 107.57306 25887 ft 419 kts 112°
2026-05-01 11:55 -6.28153 107.59998 26256 ft 421 kts 112°
2026-05-01 11:55 -6.29332 107.62706 26626 ft 424 kts 112°
2026-05-01 11:55 -6.30513 107.65421 26985 ft 426 kts 112°
2026-05-01 11:55 -6.31702 107.68154 27332 ft 428 kts 112°
2026-05-01 11:56 -6.32900 107.70906 27711 ft 429 kts 112°
2026-05-01 11:56 -6.34090 107.73641 28207 ft 427 kts 113°
2026-05-01 11:56 -6.35266 107.76343 28661 ft 426 kts 113°
2026-05-01 11:56 -6.36452 107.79069 29117 ft 426 kts 113°
2026-05-01 11:57 -6.37638 107.81797 29565 ft 425 kts 113°
2026-05-01 11:57 -6.38819 107.84515 30022 ft 424 kts 113°
2026-05-01 11:57 -6.40001 107.87234 30460 ft 423 kts 113°
2026-05-01 11:57 -6.41179 107.89944 30842 ft 424 kts 113°
2026-05-01 11:58 -6.43253 107.95525 30870 ft 424 kts 104°
2026-05-01 11:59 -6.45267 108.04105 30866 ft 420 kts 102°
2026-05-01 11:59 -6.46521 108.09842 30865 ft 420 kts 102°
2026-05-01 12:00 -6.48483 108.18434 30863 ft 420 kts 102°
2026-05-01 12:01 -6.50412 108.27026 30865 ft 420 kts 102°
2026-05-01 12:01 -6.51705 108.32757 30865 ft 420 kts 102°
2026-05-01 12:02 -6.52987 108.38446 30862 ft 420 kts 102°
2026-05-01 12:02 -6.54275 108.44172 30865 ft 420 kts 102°
2026-05-01 12:03 -6.55564 108.49903 30865 ft 420 kts 102°
2026-05-01 12:03 -6.56852 108.55631 30865 ft 420 kts 102°
2026-05-01 12:04 -6.58139 108.61359 30865 ft 420 kts 102°
2026-05-01 12:04 -6.59425 108.67085 30861 ft 420 kts 102°
2026-05-01 12:05 -6.60711 108.72815 30860 ft 420 kts 102°
2026-05-01 12:05 -6.62641 108.81424 30856 ft 420 kts 102°
2026-05-01 12:06 -6.63926 108.87156 30858 ft 418 kts 102°
2026-05-01 12:06 -6.65194 108.92815 30857 ft 418 kts 102°
2026-05-01 12:07 -6.66471 108.98524 30856 ft 418 kts 102°
2026-05-01 12:07 -6.67750 109.04240 30855 ft 419 kts 102°
2026-05-01 12:08 -6.69027 109.09949 30855 ft 418 kts 102°